EHI
0 0 0 0 0 0 0 0 0 0 0 0 0 0 0 0 0 0 0 0 0 0 0 0 0 0 0 0 0 0 0 0 0 0 0 0 0 0 0 0 0 0 0
0 0 0 0 0 0 0 0 0 0 0 0 0 0 0 0 0 0 0 0 0 0 0 0 0 0 0 0 0 0 0 0 0 0 0 0 0 0 0 0 0 0 0
0 0 0 0 0 0 0 0 0 0 0 0 0 0 0 0 0 0 0 0 0 0 0 0 0 0 0 0 0 0 0 0 0 0 0 0 0 0 0 0 0 0 0
0 0 0 0 0 0 0 0 0 0 0 0 0 0 0 0 0 0 0 0 0 0 0 0 0 0 0 0 0 0 0 0 0 0 0 0 0 0 0 0 0 0 0
0 0 0 0 0 0 0 0 0 0 0 0 0 0 0 0 0 0 0 0 0 0 0 0 0 0 0 0 0 0 0 0 0 0 0 0 0 0 0 0 0 0 0
0 0 0 0 0 0 0 0 0 0 0 0 0 0 0 0 0 0 0 0 0 0 0 0 0 0 0 0 0 0 0 0 0 0 0 0 0 0 0 0 0 0 0
0 0 0 0 0 0 0 0 0 0 0 0 0 0 0 0 0 0 0 0 0 0 0 0 0 0 0 0 0 0 0 0 0 0 0 0 0 0 0 0 0 0 0
0 0 0 0 0 0 0 0 0 0 0 0 0 0 0 0 0 0 0 0 0 0 0 0 0 0 0 0 0 0 0 0 0 0 0 0 0 0 0 0 0 0 0
0 0 0 0 0 0 0 0 0 0 0 0 0 0 0 0 0 0 0 0 0 0 0 0 0 0 0 0 0 0 0 0 0 0 0 0 0 0 0 0 0 0 0
0 0 0 0 0 0 0 0 0 0 0 0 0 0 0 0 0 0 0 0 0 0 0 0 0 0 0 0 0 0 0 0 0 0 0 0 0 0 0 0 0 0 0
0 0 0 0 0 0 0 0 0 0 0 0 0 0 0 0 0 0 0 0 0 0 0 0 0 0 0 0 0 0 0 0 0 0 0 0 0 0 0 0 0 0 0
0 0 0 0 0 0 0 0 0 0 0 0 0 0 0 0 0 0 0 0 0 0 0 0 0 0 0 0 0 0 0 0 0 0 0 0 0 0 0 0 0 0 0
0 0 0 0 0 0 0 0 0 0 0 0 0 0 0 0 0 0 0 0 0 0 0 0 0 0 0 0 0 0 0 0 0 0 0 0 0 0 0 0 0 0 0
0 0 0 0 0 0 0 0 0 0 0 0 0 0 0 0 0 0 0 0 0 0 0 0 0 0 0 0 0 0 0 0 0 0 0 0 0 0 0 0 0 0 0
0 0 0 0 0 0 0 0 0 0 0 0 0 0 0 0 0 0 0 0 0 0 0 0 0 0 0 0 0 0 0 0 0 0 0 0 0 0 0 0 0 0 0
0 0 0 0 0 0 0 0 0 0 0 0 0 0 0 0 0 0 0 0 0 0 0 0 0 0 0 0 0 0 0 0 0 0 0 0 0 0 0 0 0 0 0
0 0 0 0 0 0 0 0 0 0 0 0 0 0 0 0 0 0 0 0 0 0 0 0 0 0 0 0 0 0 0 0 0 0 0 0 0 0 0 0 0 0 0
0 0 0 0 0 0 0 0 0 0 0 0 0 0 0 0 0 0 0 0 0 0 0 0 0 0 0 0 0 0 0 0 0 0 0 0 0 0 0 0 0 0 0
0 0 0 0 0 0 0 0 0 0 0 0 0 0 0 0 0 0 0 0 0 0 0 0 0 0 0 0 0 0 0 0 0 0 0 0 0 0 0 0 0 0 0
0 0 0 0 0 0 0 0 0 0 0 0 0 0 0 0 0 0 0 0 0 0 0 0 0 0 0 0 0 0 0 0 0 0 0 0 0 0 0 0 0 0 0
0 0 0 0 0 0 0 0 0 0 0 0 0 0 0 0 0 0 0 0 0 0 0 0 0 0 0 0 0 0 0 0 0 0 0 0 0 0 0 0 0 0 0
0 0 0 0 0 0 0 0 0 0 0 0 0 0 0 0 0 0 0 0 0 0 0 0 0 0 0 0 0 0 0 0 0 0 0 0 0 0 0 0 0 0 0
0 0 0 0 0 0 0 0 0 0 0 0 0 0 0 0 0 0 0 0 0 0 0 0 0 0 0 0 0 0 0 0 0 0 0 0 0 0 0 0 0 0 0
0 0 0 0 0 0 0 0 0 0 0 0 0 0 0 0 0 0 0 0 0 0 0 0 0 0 0 0 0 0 0 0 0 0 0 0 0 0 0 0 0 0 0
0 0 0 0 0 0 0 0 0 0 0 0 0 0 0 0 0 0 0 0 0 0 0 0 0 0 0 0 0 0 0 0 0 0 0 0 0 0 0 0 0 0 0
0 0 0 0 0 0 0 0 0 0 0 0 0 0 0 0 0 0 0 0 0 0 0 0 0 0 0 0 0 0 0 0 0 0 0 0 0 0 0 0 0 0 0
Wind_Speed
5 5 6 6 5 4 4 3 3 2 2 2 2 2 3 3 3 3 4 5 5 4 3 2 3 2 1 2 2 1 2 1 1 1 2 2 2 3 3 3 4 5 6
5 5 5 4 5 4 4 4 3 2 1 1 0 1 1 2 2 3 4 5 5 5 4 3 2 2 2 2 2 1 1 1 1 1 0 1 2 3 4 3 4 5 5
9 7 6 5 5 5 4 4 3 2 1 1 1 2 2 3 3 4 4 5 5 5 4 3 2 2 1 2 2 1 1 1 1 2 2 2 2 2 2 3 3 4 4
8 7 7 6 6 5 4 5 4 2 1 1 1 1 1 2 3 3 3 5 5 5 4 3 3 2 2 2 2 1 1 1 1 1 2 2 2 1 2 2 1 3 5
9 9 8 7 6 5 5 4 3 2 1 0 1 0 1 2 2 3 4 4 4 5 4 4 3 3 2 2 2 2 1 1 2 2 1 2 1 2 2 2 2 1 2
7 7 6 6 5 4 4 4 3 2 2 1 0 1 1 2 3 3 4 4 3 4 5 4 3 3 2 2 2 2 2 2 2 2 2 2 2 2 2 2 2 2 2
7 7 7 6 6 5 5 4 4 3 3 2 1 2 2 2 2 3 3 3 3 3 5 4 3 3 3 3 3 2 2 2 3 3 3 3 3 3 3 2 2 2 1
7 8 8 7 6 6 5 5 4 3 3 2 2 2 2 1 2 3 3 3 3 3 4 4 4 4 4 3 2 2 3 2 3 4 3 3 3 3 3 3 3 2 2
8 8 7 7 6 6 6 6 5 4 3 3 2 2 2 2 2 3 3 3 3 3 4 4 4 4 4 3 3 2 3 3 3 3 3 3 3 3 3 3 4 4 3
6 7 6 6 6 6 6 5 5 5 4 3 2 2 2 2 2 2 3 3 4 4 5 5 5 4 4 4 3 2 3 3 3 2 3 3 2 3 3 3 3 4 4
7 7 6 6 5 5 4 4 4 4 3 3 3 2 2 2 1 1 2 3 3 4 4 4 4 4 4 4 3 3 3 3 3 3 3 4 3 2 2 3 3 3 4
7 7 6 5 5 5 4 5 5 5 5 4 3 2 2 1 1 2 3 3 3 3 4 4 4 4 4 3 3 3 3 3 4 4 4 4 3 2 2 2 3 3 4
6 5 5 5 6 5 5 5 5 5 5 4 3 3 2 2 3 3 3 3 3 3 4 3 4 4 4 4 3 3 3 3 4 4 4 4 3 3 2 3 3 3 3
6 6 5 6 6 6 5 5 5 5 5 4 4 4 4 4 4 3 3 3 3 3 3 3 4 4 4 4 4 3 4 4 4 4 4 4 3 4 3 3 3 3 3
5 6 6 5 5 5 5 5 5 5 5 5 5 6 5 4 3 3 3 3 3 3 3 3 4 4 4 4 4 4 4 3 4 4 4 4 5 6 4 3 3 3 3
5 6 5 5 4 5 5 5 5 5 5 5 6 5 4 4 4 4 3 3 3 4 3 4 4 5 4 7 8 5 3 3 4 5 5 5 5 5 5 5 5 5 5
5 5 5 5 5 4 4 4 4 3 3 3 4 4 4 4 5 4 3 4 4 3 4 4 4 5 6 10 9 8 3 3 4 4 4 4 4 4 3 4 5 5 7
5 4 4 3 3 2 2 3 2 2 2 2 2 3 3 4 4 4 4 5 4 4 4 5 5 5 7 9 8 8 3 3 4 4 4 4 4 4 4 3 3 4 4
5 4 4 3 2 2 2 3 3 1 1 1 2 3 3 4 4 4 5 5 4 4 4 4 5 5 7 9 7 6 2 3 5 5 4 4 4 7 6 3 3 4 4
5 4 4 4 4 2 3 5 3 2 1 3 3 3 3 3 4 5 5 4 4 5 5 5 5 5 6 9 8 5 1 3 4 4 4 6 6 7 6 3 3 5 5
5 5 6 5 3 2 4 5 3 2 3 3 2 2 3 3 4 4 3 3 4 4 4 5 5 5 6 8 8 6 2 3 4 4 4 4 9 9 9 6 5 8 6
6 6 7 5 3 3 5 5 3 3 3 2 2 3 4 4 3 3 4 3 3 3 4 4 5 4 5 5 7 7 6 4 3 4 4 5 10 11 10 7 7 9 7
6 6 7 6 4 4 4 4 3 3 3 3 4 4 5 4 4 3 4 3 2 2 3 3 4 5 4 4 7 8 7 6 4 5 8 10 11 10 7 7 9 6 3
6 6 7 7 4 4 5 4 4 4 4 4 4 4 5 5 5 4 3 2 2 2 2 3 3 4 4 4 4 4 4 5 5 5 7 10 9 6 7 6 5 3 3
5 6 7 7 5 4 5 5 4 4 5 4 5 5 5 5 5 4 3 3 2 2 1 2 2 3 5 7 7 4 3 3 4 4 3 3 4 4 4 3 3 3 3
6 7 7 7 5 5 5 5 4 4 5 4 4 4 4 4 4 4 4 5 5 8 7 6 5 3 6 10 10 9 7 7 7 3 2 4 4 5 5 5 5 4 4
Wind_Direction
169 156 148 137 123 109 103 100 88 62 51 29 8 353 340 334 339 340 346 343 339 336 336 333 329 332 314 290 280 262 267 261 210 225 282 278 243 231 226 213 206 207 210
146 148 142 135 129 121 112 104 101 95 73 52 294 277 299 306 311 326 343 346 345 339 343 343 329 329 329 326 312 264 251 255 194 168 188 294 304 263 231 206 205 207 201
159 160 152 147 136 129 133 127 129 122 98 51 21 5 3 348 346 340 336 332 341 346 343 340 338 336 338 318 309 284 230 247 237 188 181 187 233 283 292 235 216 199 195
159 161 156 154 155 159 150 139 143 141 132 88 58 33 2 325 298 300 310 322 337 343 345 344 344 340 337 318 305 322 250 228 242 239 218 212 195 196 300 308 256 212 203
166 167 166 166 168 168 158 152 153 164 192 177 138 80 314 284 295 311 327 331 328 333 336 335 341 335 321 309 306 312 293 233 222 217 216 230 225 207 197 266 296 277 227
168 166 165 159 167 173 164 159 164 200 231 249 253 184 253 295 320 323 325 324 317 317 325 326 325 320 315 303 295 291 293 269 252 237 212 201 207 204 195 224 252 259 255
168 166 166 170 178 182 183 179 181 214 240 251 253 228 235 257 278 290 299 310 313 310 313 322 314 309 302 295 287 284 285 274 265 252 236 224 224 208 192 203 228 242 265
179 178 182 183 186 189 189 189 196 215 229 233 246 244 247 249 267 279 282 293 291 288 302 316 316 312 309 307 299 290 281 274 266 263 250 234 235 219 203 192 185 222 256
187 186 187 186 188 190 196 198 199 209 219 226 231 249 267 261 275 291 296 299 301 305 321 324 326 324 322 316 313 300 295 292 273 266 259 242 237 228 220 206 190 188 217
188 186 186 188 192 197 202 201 197 202 213 216 221 223 253 263 275 296 314 314 316 321 326 330 331 333 333 331 327 312 306 310 296 282 281 268 250 240 223 216 211 200 200
188 190 193 196 194 194 195 198 203 203 211 210 212 219 253 262 279 296 298 303 310 319 326 328 333 336 338 339 338 323 323 324 313 308 298 285 270 248 232 220 212 206 199
186 188 190 191 194 201 203 201 204 207 213 209 205 216 231 242 272 281 285 298 307 314 319 326 334 337 340 339 335 322 326 316 312 309 305 295 291 267 244 224 221 215 206
182 182 185 192 202 208 210 208 208 213 212 201 202 216 226 238 253 265 279 293 301 312 321 325 325 324 324 325 320 307 306 298 292 293 291 286 288 279 260 238 227 221 218
184 184 197 212 218 218 215 214 218 213 205 199 203 217 228 230 239 254 271 282 290 299 307 306 306 307 308 307 305 304 302 301 297 292 288 280 266 264 260 250 236 225 220
187 192 202 216 225 230 229 224 222 216 206 200 210 224 230 230 239 255 267 278 289 290 291 299 307 308 303 298 300 295 298 299 303 302 295 288 281 275 262 253 230 215 217
190 196 201 205 214 220 223 222 223 219 204 206 221 230 230 232 240 250 259 274 285 289 293 293 297 303 302 310 311 306 295 299 300 302 305 300 293 296 296 289 260 226 219
182 184 190 197 208 214 206 201 212 198 189 215 233 236 233 238 246 251 259 267 271 276 286 286 287 289 292 302 310 314 304 297 296 295 299 307 313 320 301 298 298 274 254
172 175 180 187 203 206 190 179 160 154 181 227 255 252 245 250 256 256 259 262 261 264 270 276 279 282 290 299 303 312 307 300 303 299 291 291 300 302 296 288 295 286 277
169 171 168 159 149 152 153 126 114 122 132 264 266 259 248 253 262 263 261 259 258 265 264 269 274 278 288 295 295 305 299 298 301 301 298 293 290 298 302 284 285 291 286
145 142 131 110 104 106 116 103 89 61 323 273 263 258 251 251 258 261 263 262 255 260 270 276 272 268 276 288 289 291 259 284 293 299 297 294 290 296 297 274 269 277 278
131 124 109 95 91 99 100 87 64 11 305 299 301 299 284 268 265 272 271 274 278 281 280 281 284 280 275 286 287 278 238 255 278 288 292 290 297 297 291 275 255 260 267
123 121 110 98 77 78 90 80 38 325 333 0 359 334 317 310 314 289 291 290 292 297 295 294 298 295 289 284 285 283 262 253 255 272 278 283 294 297 293 280 267 269 272
134 125 119 105 76 62 78 74 4 350 13 21 0 340 338 336 333 321 313 316 316 308 305 305 302 305 307 302 297 292 284 273 258 267 279 289 296 300 296 280 280 278 259
140 130 118 107 85 61 59 51 16 23 45 30 5 353 351 346 346 347 344 343 341 335 331 330 320 317 320 318 312 302 296 292 284 285 294 299 299 295 287 288 284 264 246
132 125 120 114 103 80 58 38 30 44 49 34 15 4 0 352 349 352 353 353 354 15 7 338 325 341 333 323 319 308 300 293 286 303 312 320 322 322 314 306 294 279 266
129 122 118 116 107 86 59 33 28 51 56 37 16 5 360 355 356 355 354 2 10 15 24 25 21 355 345 348 354 347 335 332 333 340 325 318 314 309 305 301 299 287 271